Theta_e
291 291 290 290 290 289 289 289 289 289 288 288 288 288 288 288 288 288 287 287 286 286 286 285 285 285 285 285 285 285 284 283 280 282 284 284 284 284 285 285 286 285 286
290 290 288 288 288 288 287 287 287 286 287 286 286 287 287 287 287 286 285 285 284 284 284 284 283 283 283 283 283 283 282 283 281 278 281 281 282 283 283 282 283 284 284
289 288 287 287 287 286 286 286 286 286 285 285 285 285 286 286 286 285 285 284 284 283 283 282 282 281 281 281 281 281 281 281 281 279 278 280 280 281 280 280 280 281 282
289 288 287 287 286 285 285 285 284 284 284 284 283 283 284 285 285 285 284 283 283 283 283 282 281 280 279 279 279 280 280 279 279 277 277 277 277 278 278 276 275 278 278
288 287 286 285 285 285 284 284 283 283 283 283 282 282 283 284 284 283 283 282 281 281 282 281 281 280 280 280 279 279 279 277 276 275 274 274 274 274 274 275 273 275 276
287 286 285 284 284 283 283 282 282 282 282 281 281 281 280 282 283 283 283 281 281 280 280 280 280 280 279 280 281 281 279 276 275 274 273 272 273 274 273 273 273 271 270
285 284 283 283 282 281 281 280 280 280 280 279 279 280 279 280 281 282 282 281 280 280 279 279 278 279 279 278 279 278 278 278 278 275 272 273 272 272 273 272 272 272 272
284 283 282 281 281 280 279 279 279 279 279 278 278 279 278 278 279 281 281 280 280 280 279 279 278 278 278 277 276 275 275 275 275 275 274 274 273 274 274 274 273 272 271
283 281 281 280 279 279 278 278 278 278 278 278 278 278 277 278 278 279 280 279 279 278 279 278 278 277 278 278 274 273 273 272 275 276 276 275 276 276 275 273 269 267 266
282 281 280 279 279 278 278 277 277 277 277 277 277 277 277 276 277 278 279 279 277 277 278 278 278 277 277 277 273 272 269 271 271 270 270 271 272 272 274 272 270 267 266
280 279 278 277 277 278 277 276 276 276 276 275 275 276 276 276 276 277 278 277 277 276 276 276 276 276 276 275 275 271 270 272 268 268 268 268 269 269 270 270 271 270 267
278 277 276 275 276 276 275 275 275 275 274 275 275 276 277 276 276 276 277 277 277 276 275 275 274 275 274 273 272 272 273 269 267 266 265 265 266 266 267 268 270 270 271
275 274 274 274 275 276 275 274 274 275 275 276 275 276 276 276 275 276 277 277 277 276 275 274 274 272 271 270 270 271 267 266 265 263 263 264 265 266 267 267 268 268 269
274 274 273 272 273 274 275 276 275 275 275 275 275 275 276 275 274 276 276 276 276 275 273 271 270 270 270 269 266 267 266 265 264 263 263 264 265 265 265 266 264 265 265
274 274 274 274 273 274 274 275 274 276 276 275 276 276 274 273 274 275 275 275 274 272 269 267 266 266 265 265 264 264 264 264 263 263 262 262 262 263 263 264 263 263 262
275 275 275 275 275 274 274 273 275 276 275 276 277 277 276 275 275 274 275 275 273 271 265 264 263 263 263 262 262 262 262 262 262 261 261 261 261 261 261 262 262 261 261
276 277 276 273 275 274 273 273 272 272 275 276 276 276 275 274 273 273 273 273 270 267 262 262 262 262 261 261 261 261 260 261 261 261 260 260 260 260 260 260 260 260 260
274 273 276 275 274 274 273 272 272 272 269 269 274 272 272 272 271 272 271 269 264 264 262 261 260 261 261 260 260 260 260 260 259 260 259 259 259 259 258 258 259 258 259
273 275 273 275 274 273 272 271 270 270 270 270 269 268 270 269 269 270 267 262 261 261 261 260 260 260 260 259 259 259 259 259 259 258 259 258 258 258 257 258 258 259 259
272 272 272 273 271 269 269 269 269 268 268 269 268 268 266 263 264 265 263 262 261 260 260 260 260 260 259 258 258 258 258 258 258 258 258 257 257 257 256 257 258 257 258
273 272 268 270 270 268 269 268 268 268 268 268 268 267 266 265 265 263 261 261 260 260 259 260 259 259 258 258 257 257 257 258 258 257 257 257 257 255 256 257 258 258 258
273 271 267 268 269 268 268 268 268 268 267 266 266 264 267 262 262 261 260 260 260 260 259 259 258 258 258 257 257 256 256 256 257 257 257 256 255 256 256 257 257 258 258
271 270 269 268 268 267 266 267 267 266 266 265 264 263 261 261 260 260 259 259 259 259 259 258 257 256 257 256 257 257 256 256 256 257 255 255 255 255 256 256 257 257 257
269 269 269 268 267 266 266 266 265 264 264 264 263 262 261 260 259 259 258 259 258 258 257 256 255 255 255 254 255 256 257 257 257 256 255 255 255 255 256 257 257 257 257
268 268 268 267 266 265 266 265 265 264 263 262 261 261 260 259 258 258 258 258 256 256 255 254 255 254 254 253 253 253 254 256 255 255 254 255 254 255 256 258 257 257 257
267 267 267 267 266 265 265 264 264 263 262 261 260 259 259 258 257 257 256 255 255 254 254 254 254 253 253 254 255 255 255 258 257 257 256 256 256 258 258 257 257 257 257
Wind_Speed
6 8 8 6 6 6 5 6 6 5 5 5 6 6 6 6 6 6 5 6 7 6 7 7 8 7 6 6 6 6 6 7 12 10 11 13 16 16 14 14 14 15 12
5 6 6 6 5 5 5 6 5 6 5 4 4 4 4 5 5 6 7 7 7 8 8 7 8 8 8 8 7 9 8 8 10 18 14 13 15 16 16 17 14 12 14
5 6 6 6 5 5 5 5 4 4 4 4 4 4 4 5 6 6 6 6 6 6 7 8 8 8 8 8 9 9 8 9 10 12 14 12 12 13 15 15 15 16 13
6 6 5 5 5 5 5 4 3 3 4 4 4 4 4 5 6 6 6 5 5 5 5 5 6 7 8 9 9 10 10 11 11 11 12 12 12 14 13 15 16 13 15
6 6 6 5 5 5 4 4 4 4 4 3 3 4 3 4 5 6 7 6 6 5 4 5 5 4 8 11 8 10 12 11 10 11 12 13 12 13 15 14 16 16 16
7 6 6 6 5 4 4 4 4 4 3 3 3 3 3 3 6 7 7 5 4 4 5 5 6 6 9 14 18 22 19 13 13 11 12 14 16 15 13 14 15 16 19
5 5 5 4 5 4 4 4 4 3 3 3 2 1 2 2 6 7 7 5 5 4 6 5 6 5 8 9 16 21 16 19 18 14 14 14 17 17 18 17 17 17 16
6 5 5 5 5 5 4 4 4 3 2 2 2 1 1 2 3 6 8 5 5 5 5 6 7 8 9 13 14 13 12 11 11 9 12 14 15 16 15 14 16 16 16
7 6 6 5 5 5 4 3 2 2 2 2 1 1 1 0 3 6 7 5 5 6 6 6 6 9 13 22 14 14 13 11 13 20 23 23 24 24 21 11 11 12 13
7 6 6 5 5 5 4 3 1 1 2 2 2 1 0 2 2 5 6 4 5 5 6 7 7 10 18 20 13 12 12 13 14 13 11 13 15 14 21 12 10 11 11
6 5 5 5 3 3 3 3 4 3 2 2 2 2 2 2 3 5 6 5 4 5 5 5 5 14 19 19 18 9 13 16 14 10 10 10 10 10 9 10 12 10 10
5 5 5 4 4 4 4 4 3 3 3 3 3 3 3 3 5 5 6 6 8 5 6 5 6 17 17 17 12 17 19 14 8 8 9 9 10 10 10 11 13 11 10
5 5 5 4 4 4 4 5 4 4 4 4 4 4 4 4 3 6 8 9 9 5 4 8 14 15 13 10 12 15 9 6 8 8 9 9 10 11 14 12 11 12 11
6 6 4 4 6 5 5 5 4 4 5 5 5 4 4 3 3 4 2 4 6 5 8 5 8 10 10 10 5 7 6 6 8 8 8 9 10 10 10 10 11 11 11
5 4 6 6 6 5 6 5 5 5 6 4 4 3 4 4 3 4 5 4 3 4 5 3 4 4 5 5 5 6 6 6 7 7 8 9 9 10 10 9 10 10 10
6 6 6 6 5 5 5 5 11 10 8 11 12 8 4 7 7 7 9 7 8 9 2 3 4 4 5 5 6 6 6 7 7 8 8 8 9 9 10 10 9 9 10
9 7 6 6 5 6 6 5 5 6 12 13 13 10 9 9 6 8 8 9 7 6 2 4 4 4 4 5 5 6 7 7 8 7 8 8 8 9 11 9 9 9 9
8 6 6 5 6 6 6 6 5 5 6 5 10 8 9 8 7 8 6 6 3 3 3 4 4 4 4 5 5 6 6 7 7 7 8 8 8 8 9 9 9 9 10
8 7 7 6 6 6 5 5 5 5 5 4 4 5 6 6 7 7 3 3 3 4 4 4 4 4 5 5 5 5 6 6 7 8 7 7 7 8 9 9 9 12 11
7 9 7 6 5 6 6 6 6 5 5 5 5 4 4 2 3 4 3 4 4 4 4 4 5 5 5 5 5 5 6 6 7 7 7 7 7 7 8 9 9 9 9
6 6 7 6 6 6 6 6 5 5 5 4 4 4 8 5 3 3 3 3 3 4 4 5 5 5 5 5 4 5 6 7 7 7 7 7 6 7 7 8 8 8 8
4 5 6 7 5 6 5 5 5 5 5 4 4 4 8 1 3 3 4 4 4 4 4 4 5 5 5 5 5 6 7 7 7 7 7 6 7 7 7 7 7 8 7
5 6 6 5 6 5 5 5 5 5 5 4 4 4 4 3 3 4 4 3 3 4 4 4 5 6 6 5 5 6 8 8 7 7 7 7 7 7 7 8 7 7 7
5 6 6 5 5 6 6 6 5 5 5 5 5 4 4 3 3 3 3 3 3 4 5 4 5 7 7 6 6 7 7 8 7 7 8 8 8 8 8 7 6 7 7
5 5 6 6 6 6 6 6 6 5 5 5 5 4 3 3 3 2 2 3 2 4 6 6 5 7 8 9 10 10 12 15 11 10 8 10 10 12 10 7 6 6 6
5 6 6 5 5 6 6 6 6 6 6 5 4 4 3 2 2 3 2 3 4 4 7 6 8 10 12 11 12 12 13 14 13 16 11 9 9 9 3 4 6 5 5
Wind_Direction
59 67 64 79 80 80 84 75 77 74 63 61 57 55 51 46 37 40 41 28 30 23 20 13 12 358 354 351 339 335 328 327 308 313 314 318 316 321 320 321 317 315 313
114 117 104 108 91 82 78 83 74 75 66 67 67 71 64 54 47 39 36 25 22 20 14 11 10 0 359 351 339 333 328 322 314 311 319 321 320 322 320 320 321 316 317
148 137 129 111 113 115 102 89 88 98 91 76 73 72 63 46 40 34 32 25 24 18 12 6 2 3 357 345 335 334 330 327 317 314 315 318 317 323 321 321 321 318 315
160 146 127 123 125 102 96 97 104 107 111 104 87 76 59 47 38 23 20 21 13 14 6 356 360 6 352 338 330 331 331 324 321 314 313 316 322 324 320 324 322 321 320
165 153 144 138 126 121 134 146 138 127 113 94 86 69 53 47 35 17 7 7 5 349 339 354 348 2 337 335 330 326 330 325 321 317 317 317 321 326 329 332 314 317 317
175 165 150 137 131 149 161 157 148 134 112 99 85 69 51 53 18 17 13 346 336 325 333 335 339 331 344 334 331 334 328 325 318 319 317 316 319 324 326 321 317 322 319
161 149 149 141 156 170 171 167 155 136 124 116 103 97 103 75 11 2 1 319 317 318 323 324 325 336 337 339 334 327 325 322 322 324 314 316 320 323 319 319 320 315 316
170 167 162 172 177 176 180 171 153 148 148 149 148 134 141 101 355 349 339 311 307 318 312 327 326 333 335 339 327 326 321 325 324 317 314 318 310 310 315 317 320 317 313
179 178 180 182 176 180 185 176 167 169 166 194 186 187 207 178 11 335 330 317 302 304 318 322 333 325 333 331 331 320 323 321 322 323 322 316 318 322 323 328 323 322 315
182 178 168 176 184 184 178 172 155 220 204 201 216 198 145 305 307 321 318 306 298 316 322 317 319 331 332 330 327 327 321 322 327 326 319 320 319 320 327 325 319 311 313
147 149 162 176 178 176 163 167 170 206 218 206 231 221 229 247 295 287 300 309 321 319 308 313 328 333 324 327 330 329 318 327 329 320 323 319 323 326 324 322 316 312 313
147 162 170 163 179 173 173 186 187 186 210 219 225 244 218 227 237 262 292 296 313 307 306 324 330 321 324 328 333 323 329 334 321 327 321 322 328 326 322 319 316 316 307
163 174 172 170 189 191 190 205 198 188 229 223 220 227 217 198 232 249 272 274 300 304 315 315 319 320 327 326 323 324 344 331 330 322 317 324 321 317 316 318 318 314 307
186 188 176 188 201 199 211 215 207 201 214 224 222 227 220 212 220 235 271 302 310 336 337 325 310 319 319 317 319 335 335 334 320 313 323 319 315 316 316 321 322 322 320
195 181 198 208 201 201 216 215 213 223 220 219 226 237 235 231 218 266 290 286 321 329 330 296 309 315 313 321 329 336 329 320 316 325 319 315 315 315 317 324 319 323 322
200 202 207 206 198 210 214 220 231 233 223 239 241 241 230 240 261 285 294 310 327 322 311 307 304 310 315 324 324 319 315 314 320 318 308 317 313 319 319 321 322 325 322
217 205 199 201 203 203 210 218 218 206 234 235 240 236 242 257 268 285 294 314 325 327 277 290 290 304 309 309 309 307 308 313 314 309 317 312 314 314 319 320 323 323 322
216 222 205 190 209 207 207 207 210 209 199 209 223 217 238 235 272 282 294 324 290 266 262 276 287 292 293 295 297 297 302 305 310 314 306 307 312 312 314 317 318 319 319
205 216 202 210 205 208 200 202 201 207 214 208 161 215 234 232 272 267 289 242 265 265 263 271 273 277 278 281 283 286 291 300 303 298 302 306 309 308 311 312 312 315 317
214 218 194 200 191 196 202 201 200 204 206 207 203 211 149 161 222 210 213 230 244 257 267 272 274 271 272 274 280 283 290 296 296 295 297 299 300 304 304 307 311 314 316
206 199 194 205 201 198 200 202 200 197 204 203 201 165 193 216 244 230 242 243 248 258 266 269 278 276 271 269 268 276 284 288 288 288 290 292 300 299 297 300 305 308 311
213 202 188 210 200 198 199 194 194 195 195 194 180 190 220 235 234 242 247 247 252 261 268 271 271 271 270 270 272 275 277 279 281 283 286 291 290 290 293 297 305 309 311
215 211 200 205 201 187 185 194 191 192 192 185 180 189 196 221 231 241 253 265 271 274 277 274 275 274 273 269 264 265 271 273 274 280 283 282 283 285 286 291 300 308 309
219 215 208 198 193 191 194 192 189 188 183 184 185 192 203 211 235 252 260 267 282 287 285 275 265 273 280 279 278 274 271 270 266 265 266 270 275 280 277 283 293 297 301
217 212 205 198 193 196 189 191 182 179 183 186 185 188 193 208 230 250 273 286 283 279 276 273 276 278 280 277 272 270 268 274 270 267 267 262 261 265 265 273 282 290 295
216 215 208 199 194 190 191 185 181 179 185 181 179 185 189 206 226 236 246 254 261 263 276 278 276 274 274 275 273 272 268 269 263 250 241 245 254 262 250 274 284 285 288